Location: Wildlife_Club
(35.6000°N, 81.4330°W)
Time: 00:42:33
(UTC-04:00)

Courier 1B Rocket - Pass Details

Date: 21 June 2019
Orbit: 920 x 1202 km, 28.2° (Epoch: 21 July)

Event Time Altitude Azimuth Distance (km) Brightness Sun altitude
Exits shadow 04:17:36 16° 176° (S) 2,416 6.7 -18.6°
Maximum altitude 04:19:29 18° 156° (SSE) 2,282 6.7 -18.3°
Drops below altitude 10° 04:23:50 10° 115° (ESE) 2,762 7.6 -17.7°
Sets 04:27:20 0° 97° (E) 3,664 8.5 -17.2°
